Regional Weather Roundup
Issued by NWS

Home | Current Version | Previous Version | Graphics & Text | Print | Product List | Glossary On
Versions: 1 2 3 4 5 6 7 8 9 10 11 12 13 14 15 16 17 18 19 20 21 22 23 24 25 26 27 28 29 30 31 32 33 34 35 36 37 38 39 40 41 42 43 44 45 46 47 48 49 50
509
ASUS43 KLSX 210057
RWRMO

WEATHER SUMMARY FOR MISSOURI
NATIONAL WEATHER SERVICE SPRINGFIELD MO
800 PM CDT FRI OCT 20 2017

NOTE: "FAIR" INDICATES FEW OR NO CLOUDS BELOW 12,000 FEET WITH NO
       SIGNIFICANT WEATHER AND/OR OBSTRUCTIONS TO VISIBILITY.
       CURRENT SKY AND/OR WEATHER CONDITIONS ARE NOT AVAILABLE FOR
       CHILLICOTHE AND FARMINGTON.

MOZ001>031-035>038-043-044-053-054-210200-
...NORTHERN AND WESTERN MISSOURI...

CITY           SKY/WX    TMP DP  RH WIND       PRES   REMARKS
KANSAS CTY INT CLEAR     67  57  70 S14       29.86S
LEE`S SUMMIT   CLEAR     67  57  70 S16       29.89S
ST JOSEPH      LGT RAIN  69  58  67 S14       29.83S
CHILLICOTHE      N/A     66  54  65 S7        29.91S

$$
MOZ066>068-077>081-088>096-101>105-210200-
...SOUTHWEST MISSOURI...

CITY           SKY/WX    TMP DP  RH WIND       PRES   REMARKS
SPRINGFIELD    PTCLDY    66  59  78 S22G31    29.98S
JOPLIN         CLEAR     68  58  70 SE12      29.93S
BRANSON        PTCLDY    64  59  82 SE12G17   30.03F

$$
MOZ032>034-039>042-045>050-055>058-069>072-210200-
...CENTRAL MISSOURI...

CITY           SKY/WX    TMP DP  RH WIND       PRES   REMARKS
COLUMBIA       NOT AVBL
JEFFERSON CITY CLOUDY    67  50  54 SE8       29.98F
ROLLA          PTCLDY    67  53  61 S14G20    30.04R
SEDALIA        CLOUDY    66  56  70 SE14      29.95F
WARRENSBURG    CLEAR     64  54  68 SE10      29.91F

$$
MOZ051-052-059>065-210200-
...EAST CENTRAL MISSOURI...

CITY           SKY/WX    TMP DP  RH WIND       PRES   REMARKS
ST LOUIS INTL  CLOUDY    71  50  47 SE15      30.05F

$$
MOZ072>076-082>087-097>100-106>115-210200-
...SOUTH CENTRAL AND SOUTHEAST MISSOURI...

CITY           SKY/WX    TMP DP  RH WIND       PRES   REMARKS
CAPE GIRARDEAU CLOUDY    61  50  67 SE6       30.10F
POPLAR BLUFF   PTCLDY    64  52  64 SE5       30.08F
WEST PLAINS    CLOUDY    67  55  65 SE10      30.08F

$$



USA.gov is the U.S. government's official web portal to all federal, state and local government web resources and services.